Location: Allos
(44.2333°N, 6.6333°E)
Time: 04:34:45
(UTC+00:00)

Cosmos 1821 Rocket - Pass Details

Date: 01 December 2020
Orbit: 946 x 1004 km, 82.9° (Epoch: 24 January)

Event Time Altitude Azimuth Distance (km) Brightness Sun altitude
Rises 17:29:45 0° 355° (N) 3,675 6.9 -16.3°
Reaches altitude 10° 17:32:19 10° 359° (N) 2,733 6.2 -16.8°
Maximum altitude 17:38:29 58° 78° (ENE) 1,140 4.0 -17.8°
Drops below altitude 10° 17:44:42 10° 157° (SSE) 2,752 6.3 -18.9°
Sets 17:47:17 0° 162° (SSE) 3,703 7.0 -19.4°
